Location: Chuathbaluk
(61.5726°N, 159.2454°W)
Time: 11:46:05
(UTC+00:00)

Explorer 7 - Pass Details

Date: 29 November 2020
Orbit: 484 x 678 km, 50.3° (Epoch: 17 January)

Event Time Altitude Azimuth Distance (km) Brightness Sun altitude
Exits shadow 15:56:37 17° 190° (S) 1,457 8.9 -22.3°
Drops below altitude 10° 15:59:11 10° 151° (SSE) 1,798 9.9 -22.0°
Sets 16:01:58 0° 130° (SE) 2,650 11.2 -21.7°
